It's Friday,
October 18th, 2019
User not logged in
[Run Race Header Image][Run Race logo]
  
Race webcasting is attempted by race directors and their support staff. Please remember that conditions under which they're working may make it difficult to post timely webcast updates... your interest and patience is appreciated!
Race Information
Race Name:Kettle 100 Endurance Runs - 2017
Location:LaGrange
State:Wisconsin, United States
 button: button: Webcast Autoplay
Event Information
Name of Event:Kettle 100m solo
Distance:100 Miles
Started Date/Time:Saturday June 3rd, 2017, 6:02:18.49 am
button: Assign Numbers 

Event Information
Name of Event:Kettle 100k solo
Distance:100 Kilometers
Started Date/Time:Saturday June 3rd, 2017, 6:02:18.49 am
button: Assign Numbers  
Checkpoint:Scuppernong Turnaround
Distance:31.6 Miles
Gun Start Time:Saturday June 3rd, 2017 6:02:18.49 am
Calculate Chip Start Time:< not set >
Y or N... Calculate splits based upon participant chip start time?
Allow Early Chip Start Time:< not set >
Y or N... Allow participants a chip start time prior to gun start?
Pos Race
Number
NameAgeSexTimePace 
1487Cory Logsdon29M4:04:39.27:44.5Sat Jun 3rd, 2017 10:06:57 am
2425Jordan LaFreniere34M4:07:12.47:49.4Sat Jun 3rd, 2017 10:09:30 am
3497Jacob Pellmann28M4:34:47.28:41.7Sat Jun 3rd, 2017 10:37:05 am
4470Blake Trotter39M4:40:13.58:52.1Sat Jun 3rd, 2017 10:42:32 am
5511Mason Grundy23M4:46:31.59:04.0Sat Jun 3rd, 2017 10:48:49 am
6483Dan Riefenberg35M4:52:32.39:15.5Sat Jun 3rd, 2017 10:54:50 am
7416Walt Jedzejec36M4:55:07.99:20.4Sat Jun 3rd, 2017 10:57:26 am
8515David Curtin42M4:57:05.69:24.1Sat Jun 3rd, 2017 10:59:24 am
9459Ross Salinas36M4:59:17.39:28.3Sat Jun 3rd, 2017 11:01:35 am
10492Vikash Malik34M5:00:42.69:31.0Sat Jun 3rd, 2017 11:03:01 am
11510Henry Southgate36M5:00:55.59:31.4Sat Jun 3rd, 2017 11:03:13 am
12445Chris Farnum20M5:02:17.59:34.0Sat Jun 3rd, 2017 11:04:35 am
13486Mika Thewes26F5:05:41.69:40.4Sat Jun 3rd, 2017 11:08:00 am
14525Daniel Goeckermann36M5:08:29.39:45.7Sat Jun 3rd, 2017 11:10:47 am
15446PATRICK CAMPBELL57M5:17:52.310:03.6Sat Jun 3rd, 2017 11:20:10 am
16494Frank Alessandrini29M5:22:13.110:11.8Sat Jun 3rd, 2017 11:24:31 am
17520Ray Liberatore29M5:22:25.810:12.2Sat Jun 3rd, 2017 11:24:44 am
18465Phil Strong37M5:26:18.010:19.6Sat Jun 3rd, 2017 11:28:36 am
19442Colleen MacDonald34F5:26:31.810:20.0Sat Jun 3rd, 2017 11:28:50 am
20499Terry Jarrell56M5:28:33.410:23.8Sat Jun 3rd, 2017 11:30:51 am
21480Avi Janssen46M5:31:40.210:29.8Sat Jun 3rd, 2017 11:33:58 am
22518Matthew Condron50M5:33:17.410:32.8Sat Jun 3rd, 2017 11:35:35 am
23468Mark Martinsen53M5:33:17.510:32.8Sat Jun 3rd, 2017 11:35:35 am
24460Jeffrey Bruzek42M5:35:34.210:37.2Sat Jun 3rd, 2017 11:37:52 am
25503Yanzi Liu38F5:36:34.110:39.1Sat Jun 3rd, 2017 11:38:52 am
26490Brad Whitson53M5:48:03.111:00.9Sat Jun 3rd, 2017 11:50:21 am
27522Michael Younglove57M5:52:50.711:10.0Sat Jun 3rd, 2017 11:55:09 am
28495Michael Krattley53M5:52:51.011:10.0Sat Jun 3rd, 2017 11:55:09 am
29455Heidi Hasapopoulos37F5:53:50.211:11.8Sat Jun 3rd, 2017 11:56:08 am
30420Ray Johnson38M5:54:46.511:13.6Sat Jun 3rd, 2017 11:57:04 am
31493Jason Krezinski44M5:56:24.811:16.7Sat Jun 3rd, 2017 11:58:43 am
32491Andrew Owings41M5:57:23.111:18.6Sat Jun 3rd, 2017 11:59:41 am
33430ronghui wang49M5:59:54.611:23.4Sat Jun 3rd, 2017 12:02:13 pm
34457Dan McArdle33M6:00:55.111:25.3Sat Jun 3rd, 2017 12:03:13 pm
35437Marta Borkowska39F6:01:30.711:26.4Sat Jun 3rd, 2017 12:03:49 pm
36496Magdalena Casper-Shipp31F6:04:58.511:33.0Sat Jun 3rd, 2017 12:07:17 pm
37453Jaime Hardgrove37F6:05:23.511:33.8Sat Jun 3rd, 2017 12:07:41 pm
38526Brandon Becker40M6:05:24.311:33.8Sat Jun 3rd, 2017 12:07:42 pm
39501William Hutchinson47M6:05:29.111:34.0Sat Jun 3rd, 2017 12:07:47 pm
40464Stephen Strawn34M6:08:41.411:40.0Sat Jun 3rd, 2017 12:10:59 pm
41456Rob Schmitter51M6:12:05.611:46.5Sat Jun 3rd, 2017 12:14:24 pm
42419Adam Stoddard44M6:12:11.511:46.7Sat Jun 3rd, 2017 12:14:29 pm
43462James Feeny39M6:13:30.511:49.2Sat Jun 3rd, 2017 12:15:48 pm
44422Sean Wyatt45M6:14:55.811:51.9Sat Jun 3rd, 2017 12:17:14 pm
45417Dan Hibbard46M6:18:50.511:59.3Sat Jun 3rd, 2017 12:21:08 pm
46431Ezequiel Fernandez42M6:19:45.812:01.1Sat Jun 3rd, 2017 12:22:04 pm
47505Christopher Tebeau46M6:23:45.112:08.6Sat Jun 3rd, 2017 12:26:03 pm
48438Jason Jeffers44M6:24:17.112:09.7Sat Jun 3rd, 2017 12:26:35 pm
49488Lucy Burke42F6:24:29.412:10.0Sat Jun 3rd, 2017 12:26:47 pm
50475Elizabeth Coll54F6:24:41.212:10.4Sat Jun 3rd, 2017 12:26:59 pm
51432Rick Sperko46M6:28:02.712:16.8Sat Jun 3rd, 2017 12:30:21 pm
52504Josh Stebbins30M6:29:59.012:20.5Sat Jun 3rd, 2017 12:32:17 pm
53523Paul Shimondle65M6:33:42.212:27.5Sat Jun 3rd, 2017 12:36:00 pm
54452William Jackson54M6:37:52.512:35.5Sat Jun 3rd, 2017 12:40:11 pm
55498DAVID BITNER40M6:39:01.812:37.7Sat Jun 3rd, 2017 12:41:20 pm
56436Michael Wingertsahn28M6:39:42.712:38.9Sat Jun 3rd, 2017 12:42:01 pm
57467Rob Goeckermann38M6:42:12.512:43.7Sat Jun 3rd, 2017 12:44:30 pm
58458Kathy Muehlbauer43F6:44:00.512:47.1Sat Jun 3rd, 2017 12:46:18 pm
59449Ric Angara46M6:53:52.613:05.8Sat Jun 3rd, 2017 12:56:11 pm
60474Juli Aistars58F6:54:40.813:07.4Sat Jun 3rd, 2017 12:56:59 pm
61434Jing Geng51M6:55:48.713:09.5Sat Jun 3rd, 2017 12:58:07 pm
62423Thomas Hope47M6:57:00.013:11.8Sat Jun 3rd, 2017 12:59:18 pm
63400Nicole Pence31F7:00:45.413:18.9Sat Jun 3rd, 2017 1:03:03 pm
64402jon hendren55M7:01:17.413:19.9Sat Jun 3rd, 2017 1:03:35 pm
65405Lauro Perez42M7:03:23.013:23.9Sat Jun 3rd, 2017 1:05:41 pm
66519Brenda Bland57F7:06:04.713:29.0Sat Jun 3rd, 2017 1:08:23 pm
67440Andy Nordeen59M7:10:21.813:37.1Sat Jun 3rd, 2017 1:12:40 pm
68500Irene Kok46F7:10:53.113:38.1Sat Jun 3rd, 2017 1:13:11 pm
69401Thomas Owenby38M7:12:57.213:42.1Sat Jun 3rd, 2017 1:15:15 pm
70435Jen Birkner46F7:13:23.913:42.9Sat Jun 3rd, 2017 1:15:42 pm
71426Bob Pilmer59M7:13:37.513:43.3Sat Jun 3rd, 2017 1:15:56 pm
72471Sarah Hauge38F7:15:12.713:46.4Sat Jun 3rd, 2017 1:17:31 pm
73485Gail Zielinski49F7:16:53.513:49.5Sat Jun 3rd, 2017 1:19:11 pm
74477Linda Britz47F7:21:17.713:57.9Sat Jun 3rd, 2017 1:23:36 pm
75429Tony Baker49M7:21:23.313:58.1Sat Jun 3rd, 2017 1:23:41 pm
76461Liz Baumgardt36F7:24:58.614:04.9Sat Jun 3rd, 2017 1:27:17 pm
77524Robert Fredenhagen26M7:25:17.014:05.5Sat Jun 3rd, 2017 1:27:35 pm
78403Tom Burrell46M7:25:20.714:05.6Sat Jun 3rd, 2017 1:27:39 pm
79517Andrea Hutchins40F7:25:21.214:05.6Sat Jun 3rd, 2017 1:27:39 pm
80447Andrea Odrzywolski44F7:30:19.814:15.1Sat Jun 3rd, 2017 1:32:38 pm
81413Katie Zopf38F7:30:20.214:15.1Sat Jun 3rd, 2017 1:32:38 pm
82512Steven Nguyen27M7:30:21.714:15.1Sat Jun 3rd, 2017 1:32:40 pm
83489Jim Street55M7:30:43.014:15.8Sat Jun 3rd, 2017 1:33:01 pm
84516Tony Cesario53M7:33:53.314:21.8Sat Jun 3rd, 2017 1:36:11 pm
85506jason kumlien47M7:33:58.414:22.0Sat Jun 3rd, 2017 1:36:16 pm
86507Tim Hanson46M7:33:59.014:22.0Sat Jun 3rd, 2017 1:36:17 pm
87476Wayne Nelson51M7:39:01.914:31.6Sat Jun 3rd, 2017 1:41:20 pm
88441Mark Kaczmarek60M7:40:10.814:33.8Sat Jun 3rd, 2017 1:42:29 pm
89481Kirsten Pieper46F7:43:05.114:39.3Sat Jun 3rd, 2017 1:45:23 pm
90454Richard Albanese44M7:49:34.414:51.6Sat Jun 3rd, 2017 1:51:52 pm
91514Dennis Strenk45M7:53:01.714:58.2Sat Jun 3rd, 2017 1:55:20 pm
92410Jake Winder29M7:54:48.515:01.5Sat Jun 3rd, 2017 1:57:06 pm
93532Nelson Zacarias46M8:02:04.615:15.3Sat Jun 3rd, 2017 2:04:23 pm
94439Amanda Laughead44F8:10:05.415:30.5Sat Jun 3rd, 2017 2:12:23 pm
95404Ken Hannah43M8:17:22.515:44.4Sat Jun 3rd, 2017 2:19:41 pm
96479Alex Fox30M8:19:41.215:48.8Sat Jun 3rd, 2017 2:21:59 pm
97466Tiffany Campbell44F8:26:45.216:02.2Sat Jun 3rd, 2017 2:29:03 pm
98450Betsy Rogers53F8:30:36.316:09.5Sat Jun 3rd, 2017 2:32:54 pm
99412Brian Smock50M8:48:23.016:43.3Sat Jun 3rd, 2017 2:50:41 pm
100411Susan Smock39F8:48:37.516:43.7Sat Jun 3rd, 2017 2:50:56 pm
101473Stephen Bedrin40M8:59:31.517:04.4Sat Jun 3rd, 2017 3:01:50 pm

Event Information
Name of Event:Kettle 100 relay
Distance:100 Miles
Started Date/Time:Saturday June 3rd, 2017, 6:02:18.49 am
button: Assign Numbers 

Event Information
Name of Event:Kettle 50 km solo
Distance:50 Kilometers
Started Date/Time:Saturday June 3rd, 2017, 1:00:00.49 pm
button: Assign Numbers 

Event Information
Name of Event:Kettle 38 night fun run
Distance:38 Miles
Started Date/Time:Saturday June 3rd, 2017, 5:23:22.00 pm
button: Assign Numbers 
2004-2019 : All rights reserved
Terms and Conditions